QPF
0.00 0.00 0.02 0.02 0.00 0.00 0.00 0.00 0.00 0.00 0.01 0.01 0.01 0.01 0.00 0.00 0.00 0.00 0.00 0.00 0.00 0.00 0.00 0.00 0.01 0.01 0.00 0.00 0.00 0.00 0.00 0.00 0.00 0.00 0.00 0.00 0.01 0.01 0.00 0.01 0.00 0.00 0.00
0.00 0.00 0.02 0.01 0.00 0.00 0.00 0.00 0.00 0.00 0.00 0.02 0.02 0.02 0.01 0.01 0.01 0.00 0.00 0.00 0.00 0.00 0.00 0.00 0.00 0.00 0.00 0.00 0.00 0.00 0.00 0.00 0.00 0.00 0.00 0.00 0.00 0.00 0.00 0.00 0.00 0.00 0.01
0.00 0.00 0.01 0.01 0.01 0.01 0.00 0.00 0.00 0.00 0.00 0.01 0.05 0.04 0.06 0.06 0.00 0.00 0.00 0.00 0.00 0.00 0.00 0.00 0.00 0.00 0.00 0.00 0.00 0.00 0.00 0.00 0.00 0.00 0.00 0.00 0.00 0.00 0.00 0.00 0.00 0.00 0.00
0.00 0.00 0.00 0.01 0.01 0.01 0.00 0.00 0.00 0.00 0.00 0.01 0.06 0.12 0.08 0.06 0.00 0.00 0.00 0.00 0.00 0.00 0.00 0.00 0.00 0.00 0.00 0.00 0.00 0.00 0.00 0.00 0.00 0.00 0.00 0.00 0.00 0.00 0.00 0.00 0.00 0.00 0.00
0.01 0.00 0.00 0.01 0.01 0.01 0.00 0.00 0.02 0.00 0.00 0.00 0.04 0.13 0.12 0.04 0.00 0.00 0.00 0.00 0.00 0.00 0.00 0.00 0.00 0.00 0.00 0.00 0.00 0.00 0.00 0.00 0.00 0.00 0.00 0.00 0.00 0.00 0.00 0.00 0.00 0.00 0.00
0.00 0.00 0.00 0.02 0.03 0.00 0.00 0.00 0.02 0.00 0.00 0.00 0.01 0.03 0.04 0.00 0.00 0.00 0.00 0.00 0.00 0.00 0.00 0.00 0.00 0.00 0.00 0.00 0.00 0.00 0.00 0.00 0.00 0.00 0.00 0.00 0.00 0.00 0.00 0.00 0.00 0.00 0.00
0.01 0.01 0.01 0.03 0.02 0.00 0.00 0.01 0.02 0.00 0.00 0.00 0.00 0.00 0.00 0.00 0.00 0.00 0.00 0.00 0.00 0.00 0.00 0.00 0.00 0.00 0.00 0.00 0.00 0.00 0.00 0.00 0.00 0.00 0.00 0.00 0.00 0.00 0.00 0.00 0.00 0.00 0.00
0.00 0.01 0.01 0.05 0.01 0.00 0.00 0.01 0.02 0.00 0.00 0.00 0.00 0.00 0.00 0.00 0.00 0.00 0.00 0.00 0.00 0.00 0.00 0.00 0.00 0.00 0.00 0.00 0.00 0.00 0.00 0.00 0.00 0.00 0.00 0.00 0.00 0.00 0.00 0.00 0.00 0.00 0.00
0.01 0.00 0.01 0.02 0.00 0.00 0.00 0.01 0.01 0.00 0.00 0.00 0.00 0.00 0.00 0.00 0.00 0.00 0.00 0.00 0.00 0.00 0.00 0.00 0.00 0.00 0.00 0.00 0.00 0.00 0.00 0.00 0.00 0.00 0.00 0.00 0.00 0.00 0.00 0.00 0.00 0.00 0.00
0.02 0.00 0.00 0.00 0.00 0.00 0.00 0.00 0.00 0.01 0.00 0.00 0.00 0.00 0.00 0.00 0.00 0.00 0.00 0.00 0.00 0.00 0.00 0.00 0.00 0.00 0.00 0.00 0.00 0.00 0.00 0.00 0.00 0.00 0.00 0.00 0.00 0.00 0.00 0.00 0.00 0.00 0.00
0.07 0.03 0.01 0.00 0.00 0.00 0.00 0.00 0.01 0.01 0.00 0.00 0.00 0.00 0.00 0.00 0.00 0.00 0.00 0.00 0.00 0.00 0.00 0.00 0.00 0.00 0.00 0.00 0.00 0.00 0.00 0.00 0.00 0.00 0.00 0.00 0.00 0.00 0.00 0.00 0.00 0.00 0.00
0.07 0.06 0.03 0.00 0.00 0.00 0.00 0.00 0.00 0.01 0.02 0.00 0.00 0.00 0.00 0.00 0.00 0.00 0.00 0.00 0.00 0.00 0.00 0.00 0.00 0.00 0.00 0.00 0.00 0.00 0.00 0.00 0.00 0.00 0.00 0.00 0.00 0.00 0.00 0.00 0.00 0.00 0.00
0.08 0.03 0.04 0.00 0.00 0.00 0.00 0.00 0.00 0.00 0.02 0.00 0.00 0.00 0.00 0.00 0.00 0.00 0.00 0.00 0.00 0.00 0.00 0.00 0.00 0.00 0.00 0.00 0.00 0.00 0.00 0.00 0.00 0.00 0.00 0.00 0.00 0.00 0.00 0.00 0.00 0.00 0.00
0.10 0.16 0.12 0.01 0.00 0.00 0.00 0.00 0.00 0.00 0.00 0.00 0.00 0.00 0.00 0.00 0.00 0.00 0.00 0.00 0.00 0.00 0.00 0.00 0.00 0.00 0.00 0.00 0.00 0.00 0.00 0.00 0.00 0.00 0.00 0.00 0.00 0.00 0.00 0.00 0.00 0.01 0.01
0.11 0.08 0.14 0.09 0.01 0.00 0.00 0.00 0.00 0.00 0.00 0.00 0.00 0.00 0.00 0.00 0.00 0.00 0.00 0.00 0.00 0.00 0.00 0.00 0.00 0.00 0.00 0.00 0.00 0.00 0.00 0.00 0.00 0.00 0.00 0.00 0.00 0.00 0.00 0.00 0.00 0.00 0.00
0.16 0.04 0.03 0.06 0.04 0.01 0.00 0.00 0.00 0.00 0.00 0.00 0.00 0.00 0.00 0.00 0.00 0.00 0.00 0.00 0.00 0.00 0.00 0.00 0.00 0.00 0.00 0.00 0.00 0.00 0.00 0.00 0.00 0.00 0.00 0.00 0.00 0.00 0.00 0.00 0.00 0.00 0.00
0.05 0.09 0.04 0.01 0.01 0.02 0.01 0.00 0.00 0.00 0.00 0.00 0.00 0.00 0.00 0.00 0.00 0.00 0.00 0.00 0.00 0.00 0.00 0.00 0.00 0.00 0.00 0.00 0.00 0.00 0.00 0.00 0.00 0.00 0.00 0.00 0.00 0.00 0.00 0.00 0.00 0.00 0.00
0.04 0.04 0.03 0.14 0.03 0.01 0.01 0.02 0.00 0.01 0.00 0.00 0.00 0.00 0.00 0.00 0.00 0.00 0.00 0.00 0.00 0.00 0.00 0.00 0.00 0.00 0.00 0.00 0.00 0.00 0.00 0.00 0.00 0.00 0.00 0.00 0.00 0.00 0.00 0.00 0.00 0.00 0.00
0.01 0.00 0.01 0.04 0.01 0.00 0.00 0.01 0.00 0.00 0.00 0.00 0.00 0.00 0.00 0.00 0.00 0.00 0.00 0.01 0.00 0.00 0.00 0.00 0.00 0.00 0.00 0.00 0.00 0.00 0.00 0.00 0.00 0.00 0.00 0.00 0.00 0.00 0.00 0.00 0.00 0.00 0.00
0.01 0.00 0.00 0.00 0.00 0.00 0.00 0.00 0.00 0.00 0.00 0.00 0.00 0.00 0.00 0.00 0.00 0.00 0.00 0.01 0.00 0.00 0.00 0.00 0.00 0.00 0.00 0.00 0.00 0.00 0.00 0.00 0.00 0.00 0.00 0.00 0.00 0.00 0.00 0.00 0.00 0.00 0.00
0.01 0.00 0.00 0.00 0.00 0.00 0.01 0.00 0.00 0.00 0.00 0.00 0.00 0.00 0.02 0.06 0.05 0.02 0.00 0.00 0.00 0.00 0.00 0.00 0.00 0.00 0.00 0.00 0.00 0.00 0.00 0.00 0.00 0.00 0.00 0.00 0.00 0.00 0.00 0.00 0.00 0.00 0.00
0.04 0.02 0.03 0.01 0.00 0.00 0.00 0.00 0.01 0.00 0.01 0.00 0.01 0.08 0.16 0.20 0.17 0.11 0.04 0.03 0.05 0.05 0.04 0.01 0.03 0.06 0.04 0.02 0.02 0.00 0.00 0.00 0.00 0.00 0.00 0.00 0.00 0.00 0.00 0.00 0.00 0.00 0.00
0.10 0.05 0.03 0.09 0.14 0.05 0.01 0.02 0.06 0.03 0.01 0.02 0.02 0.03 0.09 0.16 0.22 0.20 0.19 0.18 0.21 0.20 0.20 0.21 0.18 0.15 0.08 0.05 0.09 0.05 0.01 0.00 0.00 0.00 0.00 0.00 0.00 0.00 0.00 0.00 0.00 0.00 0.00
0.16 0.13 0.10 0.32 0.24 0.16 0.15 0.05 0.04 0.14 0.10 0.02 0.07 0.04 0.03 0.04 0.12 0.13 0.13 0.14 0.16 0.13 0.09 0.06 0.02 0.02 0.03 0.02 0.04 0.04 0.01 0.00 0.00 0.00 0.00 0.00 0.00 0.00 0.00 0.00 0.00 0.00 0.00
0.02 0.04 0.08 0.23 0.16 0.09 0.27 0.22 0.21 0.13 0.17 0.22 0.18 0.18 0.10 0.08 0.06 0.02 0.03 0.08 0.07 0.03 0.00 0.00 0.00 0.01 0.01 0.01 0.03 0.01 0.01 0.00 0.00 0.00 0.00 0.00 0.00 0.00 0.00 0.00 0.00 0.00 0.00
0.00 0.00 0.00 0.01 0.02 0.03 0.14 0.04 0.06 0.06 0.14 0.08 0.05 0.09 0.07 0.05 0.03 0.03 0.06 0.05 0.01 0.00 0.01 0.01 0.02 0.02 0.02 0.01 0.00 0.00 0.00 0.00 0.00 0.00 0.00 0.00 0.00 0.00 0.00 0.00 0.00 0.00 0.00
MSLP
1012.31 1012.67 1013.28 1013.68 1014.16 1014.37 1014.65 1014.90 1015.17 1015.43 1015.52 1015.70 1016.01 1016.32 1016.59 1016.89 1017.16 1017.47 1017.71 1017.95 1018.18 1018.29 1018.44 1018.62 1018.78 1018.93 1019.06 1019.29 1019.46 1019.50 1019.70 1019.77 1019.81 1019.85 1019.83 1019.83 1019.68 1019.68 1019.61 1019.66 1019.51 1019.34 1019.38
1012.04 1012.61 1013.32 1013.65 1014.12 1014.34 1014.66 1014.92 1015.25 1015.59 1015.67 1015.78 1016.00 1016.33 1016.67 1017.00 1017.30 1017.62 1017.93 1018.17 1018.36 1018.51 1018.71 1018.96 1019.17 1019.31 1019.47 1019.64 1019.73 1019.89 1020.14 1020.22 1020.26 1020.27 1020.21 1020.20 1020.18 1020.06 1019.95 1019.88 1019.59 1019.56 1019.60
1012.21 1012.62 1013.32 1013.62 1014.07 1014.41 1014.76 1015.09 1015.36 1015.58 1015.76 1015.94 1016.13 1016.45 1016.76 1017.13 1017.47 1017.75 1018.06 1018.34 1018.62 1018.77 1018.94 1019.29 1019.47 1019.63 1019.85 1019.99 1020.13 1020.30 1020.49 1020.60 1020.62 1020.66 1020.62 1020.43 1020.41 1020.41 1020.36 1020.31 1020.16 1019.83 1019.80
1012.25 1012.78 1013.20 1013.76 1014.05 1014.42 1014.85 1015.19 1015.47 1015.63 1015.81 1016.10 1016.26 1016.55 1016.94 1017.23 1017.72 1018.02 1018.35 1018.56 1018.83 1019.00 1019.26 1019.59 1019.82 1020.03 1020.13 1020.33 1020.43 1020.60 1020.77 1020.90 1021.01 1020.95 1020.74 1020.76 1020.64 1020.78 1020.65 1020.59 1020.55 1020.44 1020.10
1012.44 1012.89 1013.26 1013.79 1014.12 1014.38 1014.86 1015.24 1015.56 1015.79 1015.98 1016.29 1016.55 1016.72 1017.07 1017.47 1017.97 1018.31 1018.66 1018.91 1019.14 1019.42 1019.69 1019.94 1020.21 1020.25 1020.38 1020.52 1020.71 1020.89 1021.05 1021.18 1021.27 1021.14 1021.14 1021.14 1020.94 1021.00 1020.97 1020.95 1020.81 1020.70 1020.60
1012.66 1013.03 1013.48 1013.76 1014.16 1014.47 1014.78 1015.25 1015.61 1015.96 1016.18 1016.39 1016.81 1017.14 1017.39 1017.72 1018.27 1018.62 1019.02 1019.35 1019.63 1019.86 1020.08 1020.33 1020.46 1020.59 1020.70 1020.84 1020.94 1021.11 1021.28 1021.41 1021.42 1021.34 1021.36 1021.33 1021.13 1021.24 1021.17 1021.14 1021.08 1020.95 1020.85
1012.75 1013.10 1013.55 1013.78 1014.15 1014.62 1014.83 1015.20 1015.62 1016.15 1016.40 1016.67 1016.92 1017.24 1017.53 1017.98 1018.54 1018.95 1019.34 1019.62 1019.90 1020.04 1020.33 1020.52 1020.65 1020.84 1020.95 1021.06 1021.17 1021.35 1021.54 1021.65 1021.45 1021.49 1021.49 1021.45 1021.33 1021.37 1021.35 1021.32 1021.26 1021.19 1021.11
1012.63 1012.87 1013.55 1013.82 1014.02 1014.57 1014.98 1015.28 1015.64 1016.27 1016.56 1016.83 1017.07 1017.36 1017.73 1018.14 1018.68 1019.22 1019.52 1019.79 1020.05 1020.22 1020.39 1020.60 1020.79 1020.96 1021.03 1021.18 1021.28 1021.44 1021.62 1021.71 1021.60 1021.58 1021.64 1021.63 1021.61 1021.50 1021.48 1021.49 1021.49 1021.44 1021.38
1012.50 1012.77 1013.48 1013.82 1014.15 1014.55 1015.02 1015.44 1015.81 1016.29 1016.69 1016.98 1017.18 1017.52 1017.85 1018.47 1018.88 1019.32 1019.70 1019.91 1020.13 1020.36 1020.59 1020.79 1020.96 1021.16 1021.30 1021.39 1021.53 1021.60 1021.69 1021.81 1021.58 1021.69 1021.71 1021.67 1021.74 1021.64 1021.68 1021.65 1021.62 1021.56 1021.53
1012.67 1012.92 1013.38 1013.92 1014.21 1014.57 1015.08 1015.60 1015.99 1016.37 1016.76 1017.18 1017.48 1017.83 1018.20 1018.71 1019.20 1019.44 1019.83 1020.10 1020.31 1020.55 1020.81 1021.02 1021.17 1021.32 1021.50 1021.62 1021.69 1021.81 1021.89 1021.96 1021.72 1021.80 1021.74 1021.69 1021.76 1021.65 1021.72 1021.74 1021.74 1021.71 1021.73
1013.32 1013.25 1013.50 1013.85 1014.23 1014.63 1015.01 1015.53 1016.10 1016.51 1016.88 1017.26 1017.74 1018.15 1018.52 1018.88 1019.29 1019.58 1019.95 1020.25 1020.47 1020.61 1020.88 1021.05 1021.26 1021.42 1021.63 1021.76 1021.85 1021.89 1021.97 1021.84 1021.83 1021.77 1021.73 1021.91 1021.81 1021.68 1021.77 1021.80 1021.81 1021.76 1021.77
1012.97 1013.56 1013.56 1013.78 1014.18 1014.68 1015.06 1015.50 1015.98 1016.50 1016.85 1017.32 1017.80 1018.38 1018.72 1019.11 1019.44 1019.71 1019.99 1020.30 1020.52 1020.69 1020.86 1021.00 1021.15 1021.36 1021.54 1021.56 1021.68 1021.88 1021.78 1021.81 1021.74 1021.66 1021.60 1021.81 1021.74 1021.59 1021.60 1021.71 1021.75 1021.74 1021.76
1013.30 1013.38 1013.57 1013.68 1014.29 1014.67 1015.05 1015.60 1015.98 1016.38 1016.93 1017.40 1017.91 1018.46 1018.85 1019.29 1019.69 1019.91 1020.10 1020.28 1020.55 1020.75 1020.85 1020.96 1021.10 1021.15 1021.31 1021.42 1021.49 1021.50 1021.56 1021.61 1021.57 1021.58 1021.56 1021.65 1021.58 1021.46 1021.32 1021.38 1021.55 1021.55 1021.58
1013.19 1013.11 1013.44 1013.59 1014.23 1014.67 1015.09 1015.61 1016.11 1016.43 1016.65 1017.25 1017.88 1018.42 1018.79 1019.22 1019.67 1019.97 1020.17 1020.41 1020.63 1020.72 1020.87 1021.09 1021.09 1021.13 1021.15 1021.29 1021.34 1021.30 1021.26 1021.26 1021.28 1021.35 1021.32 1021.52 1021.45 1021.33 1021.20 1021.10 1021.14 1021.23 1021.31
1012.68 1012.87 1013.35 1013.59 1013.99 1014.16 1014.93 1015.61 1016.15 1016.58 1016.86 1017.20 1017.77 1018.30 1018.64 1018.99 1019.35 1019.78 1019.99 1020.30 1020.58 1020.76 1020.87 1021.03 1021.15 1021.10 1021.11 1021.09 1021.12 1021.14 1021.01 1020.98 1021.00 1021.04 1021.01 1021.18 1021.18 1021.07 1020.93 1020.79 1020.66 1020.62 1020.71
1012.51 1012.58 1012.93 1013.74 1014.03 1014.50 1014.06 1014.95 1015.82 1016.40 1016.84 1017.21 1017.65 1018.06 1018.39 1018.77 1019.09 1019.45 1019.79 1020.03 1020.26 1020.47 1020.68 1020.87 1021.00 1021.05 1021.01 1020.98 1020.88 1020.81 1020.75 1020.75 1020.67 1020.72 1020.77 1020.64 1020.77 1020.67 1020.58 1020.42 1020.26 1020.27 1020.19
1012.35 1012.37 1012.68 1013.11 1014.10 1014.58 1014.96 1014.34 1014.94 1015.88 1016.54 1017.04 1017.28 1017.75 1018.13 1018.59 1018.89 1019.17 1019.56 1019.83 1020.05 1020.26 1020.54 1020.77 1020.94 1021.16 1021.11 1020.98 1020.82 1020.63 1020.52 1020.45 1020.47 1020.35 1020.37 1020.35 1020.23 1020.35 1020.27 1020.20 1020.03 1019.87 1019.86
1012.05 1012.02 1012.50 1012.52 1013.46 1014.50 1014.91 1015.41 1014.51 1015.00 1015.74 1016.46 1016.72 1017.20 1017.74 1018.23 1018.50 1018.95 1019.17 1019.38 1019.74 1020.08 1020.41 1020.54 1020.60 1020.80 1020.91 1020.80 1020.67 1020.39 1020.16 1020.18 1020.10 1020.17 1020.20 1020.15 1019.99 1019.92 1019.91 1019.88 1019.75 1019.61 1019.48
1011.88 1012.22 1012.69 1013.70 1014.26 1014.75 1014.83 1015.17 1014.88 1014.44 1015.22 1016.04 1016.74 1017.08 1017.45 1017.69 1018.05 1018.48 1018.53 1018.84 1019.44 1019.78 1020.04 1020.37 1020.45 1020.59 1020.49 1020.35 1020.32 1020.11 1019.99 1019.74 1019.53 1019.55 1019.55 1019.75 1019.93 1019.81 1019.52 1019.33 1019.52 1019.36 1019.27
1011.03 1011.92 1012.86 1013.38 1014.00 1014.52 1014.89 1014.79 1014.49 1014.64 1015.15 1015.70 1016.53 1017.03 1017.20 1016.96 1017.57 1017.94 1017.99 1018.34 1018.92 1019.37 1019.82 1020.13 1020.13 1020.12 1020.12 1020.03 1020.07 1019.93 1019.83 1019.41 1019.28 1019.21 1019.32 1019.54 1019.53 1019.56 1019.43 1019.20 1019.08 1018.96 1019.17
1011.78 1012.08 1012.12 1013.41 1013.30 1013.57 1014.09 1013.64 1014.85 1015.18 1015.45 1015.58 1016.24 1016.76 1017.02 1017.19 1017.56 1017.98 1017.58 1017.99 1018.26 1018.79 1019.17 1019.67 1019.90 1019.88 1019.92 1019.88 1020.14 1019.66 1019.44 1019.30 1019.34 1019.39 1019.51 1019.45 1019.35 1019.37 1019.39 1019.29 1019.14 1018.95 1018.82
1011.61 1011.75 1012.96 1013.01 1012.78 1013.48 1012.61 1012.89 1013.33 1014.20 1014.82 1015.91 1016.24 1016.24 1016.52 1016.77 1017.37 1017.90 1017.93 1018.05 1017.89 1018.61 1019.17 1019.47 1019.53 1019.32 1019.35 1019.50 1019.70 1019.85 1019.25 1019.37 1019.40 1019.56 1019.64 1019.67 1019.63 1019.50 1019.32 1019.51 1019.46 1019.45 1019.20
1011.54 1011.98 1012.23 1012.33 1013.05 1013.31 1013.09 1013.44 1013.94 1014.59 1015.10 1015.37 1015.48 1015.54 1015.74 1016.57 1016.97 1017.51 1017.73 1017.86 1018.17 1018.86 1019.25 1019.73 1019.84 1019.44 1019.50 1019.71 1020.01 1020.28 1019.98 1019.77 1019.85 1019.52 1019.65 1019.88 1019.69 1019.56 1019.39 1019.47 1019.53 1019.71 1019.80
1011.68 1011.53 1012.05 1012.31 1012.58 1012.55 1013.13 1013.97 1014.35 1014.51 1014.70 1014.53 1014.89 1015.15 1015.75 1016.25 1016.38 1016.63 1016.76 1017.33 1017.86 1018.21 1018.73 1019.26 1019.55 1019.71 1019.75 1019.98 1020.12 1020.34 1020.71 1020.53 1020.17 1019.81 1019.88 1020.01 1020.17 1019.95 1019.83 1019.73 1019.85 1019.84 1020.14
1011.89 1011.64 1011.83 1012.36 1012.40 1012.72 1013.24 1013.47 1013.96 1014.09 1014.20 1014.50 1014.68 1014.92 1015.67 1015.69 1016.07 1016.55 1016.58 1016.52 1017.35 1017.46 1017.71 1018.78 1019.61 1019.98 1019.73 1020.13 1020.05 1020.37 1020.80 1020.61 1020.71 1020.81 1020.21 1020.23 1020.12 1020.18 1020.32 1020.07 1020.23 1020.33 1020.54
1012.12 1012.10 1012.09 1012.32 1012.86 1012.98 1012.88 1013.22 1013.59 1013.63 1014.00 1014.39 1014.60 1014.92 1015.22 1015.36 1015.61 1015.60 1016.12 1016.49 1016.80 1017.15 1017.18 1017.40 1018.32 1019.44 1019.81 1020.12 1020.31 1020.53 1020.48 1020.36 1020.45 1020.70 1020.80 1020.65 1020.48 1020.24 1020.41 1020.40 1020.39 1020.39 1020.44
Thickness
5766 5766 5762 5761 5760 5760 5759 5758 5757 5756 5756 5754 5751 5749 5747 5746 5744 5742 5740 5739 5738 5737 5735 5733 5732 5730 5729 5728 5726 5726 5724 5724 5723 5723 5722 5721 5722 5721 5720 5719 5719 5718 5717
5765 5762 5760 5758 5757 5757 5756 5756 5754 5753 5753 5752 5750 5748 5745 5743 5741 5739 5738 5736 5735 5734 5732 5730 5728 5726 5725 5724 5723 5722 5720 5720 5719 5719 5719 5719 5718 5718 5717 5717 5717 5716 5714
5760 5759 5756 5756 5754 5754 5753 5752 5751 5751 5750 5749 5747 5745 5743 5741 5738 5737 5735 5734 5732 5731 5729 5726 5724 5723 5721 5720 5719 5718 5717 5716 5716 5715 5715 5715 5715 5714 5714 5713 5712 5713 5711
5754 5753 5752 5750 5751 5750 5749 5748 5747 5748 5747 5746 5744 5743 5739 5738 5734 5733 5731 5730 5729 5728 5726 5723 5721 5719 5718 5716 5716 5714 5713 5713 5712 5712 5713 5712 5712 5711 5711 5710 5708 5707 5707
5748 5747 5748 5746 5746 5747 5745 5745 5744 5744 5744 5742 5740 5739 5736 5733 5731 5729 5727 5726 5724 5723 5721 5719 5717 5716 5715 5714 5713 5711 5710 5709 5709 5709 5709 5708 5709 5708 5707 5706 5705 5703 5702
5740 5740 5741 5743 5742 5742 5743 5741 5740 5739 5739 5739 5736 5733 5732 5730 5726 5724 5722 5720 5719 5718 5716 5714 5714 5712 5711 5710 5710 5709 5707 5707 5707 5706 5706 5705 5706 5705 5705 5703 5702 5701 5699
5734 5733 5735 5738 5737 5735 5738 5738 5736 5734 5734 5733 5732 5730 5728 5726 5722 5719 5717 5716 5714 5714 5712 5711 5710 5709 5708 5706 5706 5705 5704 5704 5704 5704 5703 5703 5703 5702 5701 5700 5699 5697 5696
5728 5731 5728 5731 5734 5732 5731 5732 5732 5729 5729 5728 5728 5726 5724 5722 5719 5715 5713 5711 5710 5709 5709 5707 5707 5705 5705 5704 5703 5703 5702 5702 5701 5701 5700 5700 5699 5699 5698 5697 5695 5694 5693
5722 5725 5723 5725 5726 5727 5726 5726 5726 5725 5724 5723 5723 5721 5719 5716 5714 5712 5709 5708 5707 5706 5704 5704 5703 5702 5701 5700 5699 5699 5699 5699 5699 5698 5698 5697 5697 5696 5695 5694 5693 5692 5690
5713 5716 5717 5716 5719 5720 5720 5720 5720 5720 5720 5718 5717 5717 5714 5711 5708 5708 5705 5704 5703 5702 5700 5699 5698 5698 5697 5696 5696 5695 5695 5695 5696 5695 5695 5695 5694 5694 5692 5691 5690 5688 5686
5693 5703 5706 5709 5712 5714 5715 5715 5714 5714 5714 5714 5712 5710 5709 5706 5703 5703 5701 5699 5698 5699 5697 5695 5694 5693 5693 5693 5692 5692 5692 5692 5692 5692 5693 5692 5691 5691 5690 5688 5687 5685 5683
5686 5691 5698 5701 5705 5706 5708 5709 5709 5709 5710 5708 5707 5703 5702 5700 5698 5698 5698 5696 5695 5695 5694 5694 5693 5692 5691 5690 5690 5690 5690 5689 5689 5690 5690 5690 5689 5688 5687 5686 5684 5683 5680
5675 5685 5691 5696 5696 5699 5701 5701 5703 5705 5704 5703 5700 5698 5696 5695 5692 5692 5693 5692 5690 5691 5690 5691 5690 5690 5689 5688 5688 5688 5689 5688 5687 5687 5687 5687 5686 5686 5685 5684 5681 5680 5678
5671 5680 5685 5691 5691 5693 5695 5696 5697 5698 5700 5698 5695 5693 5692 5690 5687 5686 5686 5685 5685 5686 5685 5685 5686 5686 5688 5686 5685 5685 5686 5687 5686 5685 5685 5685 5684 5683 5681 5681 5679 5677 5674
5668 5673 5676 5681 5685 5691 5690 5690 5690 5691 5691 5692 5691 5690 5689 5688 5686 5683 5683 5681 5680 5681 5681 5680 5680 5682 5683 5683 5683 5682 5683 5683 5683 5682 5682 5683 5682 5682 5680 5679 5678 5677 5673
5667 5670 5675 5674 5676 5678 5689 5686 5686 5687 5686 5687 5686 5686 5687 5684 5683 5682 5680 5679 5678 5677 5676 5675 5674 5675 5677 5679 5679 5680 5680 5680 5680 5679 5677 5679 5680 5680 5679 5678 5678 5676 5673
5663 5667 5672 5676 5670 5670 5672 5682 5684 5684 5683 5682 5683 5682 5681 5680 5679 5678 5676 5675 5674 5674 5672 5670 5669 5668 5669 5671 5674 5675 5676 5675 5675 5676 5676 5675 5676 5675 5675 5674 5674 5674 5671
5662 5665 5668 5679 5674 5668 5667 5666 5680 5685 5684 5681 5682 5679 5677 5676 5677 5673 5673 5672 5671 5668 5666 5666 5666 5665 5665 5666 5667 5669 5671 5672 5671 5669 5670 5670 5670 5669 5669 5669 5669 5668 5667
5659 5660 5667 5666 5663 5662 5667 5666 5671 5682 5682 5677 5675 5674 5673 5674 5675 5673 5674 5671 5667 5665 5663 5661 5661 5660 5661 5663 5663 5665 5665 5669 5669 5667 5665 5663 5661 5663 5664 5665 5663 5664 5662
5664 5663 5661 5663 5663 5663 5663 5664 5671 5675 5674 5675 5671 5668 5669 5672 5672 5672 5672 5670 5665 5662 5658 5655 5656 5658 5658 5659 5658 5658 5658 5663 5663 5662 5661 5659 5658 5657 5657 5659 5657 5657 5656
5655 5660 5667 5657 5665 5665 5659 5667 5661 5666 5667 5670 5666 5663 5663 5665 5665 5664 5668 5665 5665 5660 5656 5652 5651 5652 5651 5652 5647 5651 5655 5656 5654 5653 5651 5650 5652 5651 5650 5649 5649 5650 5649
5652 5659 5651 5658 5664 5660 5672 5675 5672 5668 5666 5660 5658 5662 5661 5661 5660 5656 5657 5657 5658 5654 5649 5646 5646 5648 5647 5645 5642 5640 5643 5644 5644 5643 5642 5641 5640 5641 5641 5637 5636 5635 5635
5649 5654 5658 5659 5654 5655 5665 5666 5662 5657 5659 5659 5659 5662 5664 5658 5657 5651 5651 5650 5649 5644 5642 5637 5634 5637 5635 5635 5633 5630 5629 5628 5628 5635 5634 5631 5633 5633 5632 5629 5627 5624 5620
5641 5651 5650 5652 5655 5660 5660 5656 5653 5653 5654 5660 5660 5660 5658 5654 5654 5649 5651 5647 5643 5643 5639 5628 5627 5626 5626 5624 5625 5623 5619 5620 5620 5625 5624 5622 5620 5621 5621 5619 5615 5614 5609
5633 5641 5646 5646 5649 5653 5650 5650 5649 5650 5652 5651 5654 5653 5648 5650 5648 5642 5644 5646 5640 5640 5639 5626 5619 5617 5619 5617 5618 5615 5610 5610 5608 5607 5614 5613 5612 5610 5606 5606 5603 5599 5594
5630 5635 5640 5645 5645 5648 5649 5649 5648 5650 5647 5646 5648 5646 5643 5644 5644 5644 5641 5639 5633 5633 5634 5633 5624 5616 5612 5608 5607 5605 5605 5606 5604 5599 5597 5598 5598 5598 5595 5592 5590 5588 5585